Regional Weather Roundup
Issued by NWS

Home | Current Version | Previous Version | Text Only | Print | Product List | Glossary Off
Versions: 1 2 3 4 5 6 7 8 9 10 11 12 13 14 15 16 17 18 19 20 21 22 23 24 25 26 27 28 29 30 31 32 33 34 35 36 37 38 39 40 41 42 43 44 45 46 47 48 49 50

000
ASUS43 KIND 081359
RWRIN

WEATHER ROUNDUP FOR INDIANA
NATIONAL WEATHER SERVICE INDIANAPOLIS IN
900 AM EST THU DEC 08 2016

NOTE: "FAIR" INDICATES FEW OR NO CLOUDS BELOW 12,000 FEET WITH NO
SIGNIFICANT WEATHER AND/OR OBSTRUCTIONS TO VISIBILITY.

* - STATION DOES NOT REPORT WEATHER SUCH AS PRECIPITATION OR FOG.

+ - STATION NOT QUALITY CONTROLLED BY THE NATIONAL WEATHER SERVICE.
    USE DATA WITH CAUTION...ESPECIALLY DEWPOINT AND RELATIVE
    HUMIDITY OBSERVATIONS.

INZ001>003-010>013-019-020-081500-
NORTHWEST INDIANA

CITY           SKY/WX    TMP DP  RH WIND       PRES   REMARKS

$$

LMZ046-743>745-081500-
SOUTHERN LAKE MICHIGAN

STATION/POSITION TIME  TEMP    WIND        PRES    WAVE
                       AIR SEA DIR/SP/G            HT
                 (UTC) (F)     (DEG/KT/KT) (MB)    (FT)

$$

INZ004-005-014>016-021>024-081500-
NORTH CENTRAL INDIANA

CITY           SKY/WX    TMP DP  RH WIND       PRES   REMARKS
GOSHEN         LGT SNOW  22  13  68 W21G30    30.16R WCI   6
SOUTH BEND     FLURRIES  20  15  81 W18       30.16R WCI   5

$$

INZ006>009-017-018-025>027-081500-
NORTHEAST INDIANA

CITY           SKY/WX    TMP DP  RH WIND       PRES   REMARKS
ANGOLA *+      CLOUDY    21  18  86 W12       30.10R WCI   9
FORT WAYNE     FLURRIES  23  16  74 W20       30.17R WCI   8
KENDALLVILLE + FLURRIES  22  16  77 W18G29    30.13R WCI   7

$$

INZ028-029-035-036-043>045-051>053-081500-
WEST CENTRAL INDIANA

CITY           SKY/WX    TMP DP  RH WIND       PRES   REMARKS
CRAWFORDSVL +  CLOUDY    19  14  81 W15G21    30.29R WCI   5
GREENCASTLE +  MOCLDY    21  16  79 W12G20    30.30R WCI   9
LAFAYETTE      FLURRIES  20  13  74 W14G28    30.29R WCI   7
TERRE HAUTE    PTCLDY    22  13  68 W14       30.34R WCI   9

$$

INZ030>032-037>040-046>048-054>057-064-065-081500-
CENTRAL INDIANA

CITY           SKY/WX    TMP DP  RH WIND       PRES   REMARKS
ANDERSON       CLOUDY    21  14  73 W17G29    30.24  WCI   7
COLUMBUS       SUNNY     23  16  74 W12       30.30S WCI  12
GREENWOOD *+   CLEAR     22  15  74 W16G24    30.28R WCI   9
INDIANAPOLIS   MOCLDY    21  13  71 W17       30.28R WCI   7
-EAGLE CREEK   CLOUDY    22  14  71 W15G22    30.27R WCI   9
SHELBYVILLE    CLEAR     23  14  68 W14       30.27R WCI  11

$$

INZ033-034-041-042-049-050-058-059-081500-
EAST CENTRAL INDIANA

CITY           SKY/WX    TMP DP  RH WIND       PRES   REMARKS
MUNCIE         CLOUDY    23  14  68 W21G30    30.22R WCI   8

$$

INZ060-061-067>069-081>083-085>088-081500-
SOUTHWEST INDIANA

CITY           SKY/WX    TMP DP  RH WIND       PRES   REMARKS
EVANSVILLE     PTCLDY    26  14  60 W10       30.41R WCI  16
HUNTINGBURG *+ MOSUNNY   25  16  68 NW8       30.39R WCI  16

$$

INZ062-063-066-070>080-084-089>092-081500-
SOUTH CENTRAL AND SOUTHEAST INDIANA

CITY           SKY/WX    TMP DP  RH WIND       PRES   REMARKS
BLOOMINGTON    CLEAR     23  13  65 W10       30.31R WCI  12
MADISON *+     SUNNY     27  14  59 W12G20    30.32R WCI  16
SEYMOUR +      SUNNY     27  14  59 W16       30.33R WCI  14

$$





USA.gov is the U.S. government's official web portal to all federal, state and local government web resources and services.